Location: Curupao
(10.4996°N, 66.6442°W)
Time: 00:57:43
(UTC+00:00)

Lacrosse 5 rocket - Pass Details

Date: 23 May 2024
Orbit: 446 x 572 km, 57.0° (Epoch: 11 June)

Event Time Altitude Azimuth Distance (km) Brightness Sun altitude
Rises 09:28:56 0° 301° (WNW) 2,552 4.4 -8.7°
Reaches altitude 10° 09:31:57 10° 275° (W) 1,642 3.2 -8.1°
Maximum altitude 09:33:56 14° 242° (WSW) 1,394 2.7 -7.6°
Drops below altitude 10° 09:35:53 10° 209° (SSW) 1,608 3.2 -7.2°
Sets 09:38:48 0° 183° (S) 2,461 4.4 -6.5°
